When you browse on this site, cookies collect data to enhance your experience and personalize the content and advertising you see.
Visit our Privacy Policy to learn more. By continuing to use the site, you agree to this use of cookies and data.
  • In Lithuania
  • List of Countries
  • For 7 days
  • Water Temperature
  • Satellite Maps
  • Weather Map
  • Weather Widgets
  • user-avatar
    Login

    Hourly Weather Busni

    Today, 19 February, Tuesday

    Time Temperature Precipitation Wind Pressure Humidity
    00:00 +2°C° 0 mm 2 mps 753 mmHg 91%
    01:00 +1°C° 0 mm 3 mps 753 mmHg 91%
    02:00 +1°C° 0 mm 3 mps 753 mmHg 92%
    03:00 +1°C° 0 mm 3 mps 752 mmHg 91%
    04:00 +1°C° 0 mm 3 mps 752 mmHg 91%
    05:00 +1°C° 0 mm 4 mps 751 mmHg 91%
    06:00 0°C° 0 mm 4 mps 751 mmHg 92%
    07:00 0°C° 0 mm 4 mps 751 mmHg 93%
    08:00 0°C° 0 mm 3 mps 750 mmHg 94%
    09:00 0°C° 0 mm 4 mps 750 mmHg 89%
    10:00 +3°C° 0 mm 4 mps 749 mmHg 83%
    11:00 +4°C° 0 mm 4 mps 749 mmHg 78%
    12:00 +5°C° 0 mm 5 mps 749 mmHg 71%
    13:00 +7°C° 0 mm 5 mps 748 mmHg 64%
    14:00 +10°C° 0 mm 4 mps 747 mmHg 57%
    15:00 +10°C° 0 mm 4 mps 747 mmHg 58%
    16:00 +8°C° 0 mm 4 mps 747 mmHg 59%
    17:00 +8°C° 0 mm 4 mps 746 mmHg 60%
    18:00 +7°C° 0 mm 4 mps 746 mmHg 64%
    19:00 +6°C° 0 mm 4 mps 746 mmHg 68%
    20:00 +5°C° 0 mm 4 mps 746 mmHg 72%
    21:00 +5°C° 0 mm 4 mps 746 mmHg 75%
    22:00 +4°C° 0 mm 4 mps 746 mmHg 79%
    23:00 +4°C° 0 mm 4 mps 746 mmHg 82%

    Tomorrow, 20 February, Wednesday

    Time Temperature Precipitation Wind Pressure Humidity
    00:00 +4°C° 0.2 mm 4 mps 746 mmHg 86%
    01:00 +4°C° 0.2 mm 4 mps 746 mmHg 89%
    02:00 +4°C° 0.2 mm 4 mps 746 mmHg 93%
    03:00 +3°C° 0 mm 4 mps 746 mmHg 92%
    04:00 +3°C° 0 mm 4 mps 746 mmHg 92%
    05:00 +1°C° 0 mm 5 mps 746 mmHg 92%
    06:00 +1°C° 0 mm 5 mps 746 mmHg 92%
    07:00 +1°C° 0 mm 6 mps 746 mmHg 91%
    08:00 +1°C° 0 mm 6 mps 746 mmHg 90%
    09:00 +2°C° 0 mm 6 mps 747 mmHg 84%
    10:00 +2°C° 0 mm 7 mps 747 mmHg 79%
    11:00 +3°C° 0 mm 7 mps 747 mmHg 73%
    12:00 +3°C° 0.1 mm 7 mps 747 mmHg 69%
    13:00 +4°C° 0.1 mm 7 mps 747 mmHg 65%
    14:00 +4°C° 0.1 mm 8 mps 747 mmHg 62%
    15:00 +4°C° 0 mm 7 mps 747 mmHg 63%
    16:00 +4°C° 0 mm 7 mps 748 mmHg 63%
    17:00 +3°C° 0 mm 7 mps 748 mmHg 64%
    18:00 +3°C° 0 mm 7 mps 748 mmHg 67%
    19:00 +3°C° 0 mm 7 mps 748 mmHg 69%
    20:00 +3°C° 0 mm 7 mps 749 mmHg 72%
    21:00 +2°C° 0 mm 7 mps 749 mmHg 74%
    22:00 +2°C° 0 mm 7 mps 749 mmHg 76%
    23:00 +2°C° 0 mm 7 mps 750 mmHg 77%

    Day after tomorrow, 21 February, Thursday

    Time Temperature Precipitation Wind Pressure Humidity
    00:00 +1°C° 0 mm 6 mps 750 mmHg 78%
    01:00 0°C° 0 mm 5 mps 750 mmHg 79%
    02:00 -1°C° 0 mm 4 mps 751 mmHg 80%
    03:00 -1°C° 0 mm 4 mps 751 mmHg 78%
    04:00 -1°C° 0 mm 4 mps 751 mmHg 76%
    05:00 -2°C° 0 mm 4 mps 751 mmHg 74%
    06:00 -2°C° 0 mm 4 mps 751 mmHg 73%
    07:00 -2°C° 0 mm 4 mps 751 mmHg 71%
    08:00 -1°C° 0 mm 3 mps 751 mmHg 70%
    09:00 0°C° 0 mm 3 mps 751 mmHg 68%
    10:00 +1°C° 0 mm 3 mps 751 mmHg 65%
    11:00 +2°C° 0 mm 3 mps 752 mmHg 63%
    12:00 +2°C° 0.1 mm 3 mps 751 mmHg 66%
    13:00 +3°C° 0.1 mm 2 mps 751 mmHg 70%
    14:00 +4°C° 0.1 mm 1 mps 751 mmHg 74%
    15:00 +4°C° 0.5 mm 1 mps 750 mmHg 78%
    16:00 +3°C° 0.5 mm 1 mps 750 mmHg 82%
    17:00 +3°C° 0.5 mm 1 mps 749 mmHg 86%
    18:00 +1°C° 0.5 mm 2 mps 749 mmHg 88%
    19:00 +1°C° 0.5 mm 2 mps 749 mmHg 90%
    20:00 0°C° 0.5 mm 3 mps 749 mmHg 92%
    21:00 -1°C° 0.2 mm 3 mps 749 mmHg 91%
    22:00 -2°C° 0.2 mm 4 mps 749 mmHg 90%
    23:00 -3°C° 0.2 mm 4 mps 750 mmHg 89%

    22 February, Friday

    Time Temperature Precipitation Wind Pressure Humidity
    00:00 -3°C° 0.4 mm 4 mps 750 mmHg 88%
    01:00 -5°C° 0.4 mm 5 mps 750 mmHg 88%
    02:00 -5°C° 0.4 mm 5 mps 751 mmHg 87%
    03:00 -5°C° 0.1 mm 5 mps 752 mmHg 84%
    04:00 -5°C° 0.1 mm 5 mps 752 mmHg 80%
    05:00 -5°C° 0.1 mm 5 mps 753 mmHg 76%
    06:00 -6°C° 0 mm 5 mps 754 mmHg 75%
    07:00 -7°C° 0 mm 5 mps 755 mmHg 73%
    08:00 -9°C° 0 mm 6 mps 757 mmHg 72%
    09:00 -9°C° 0 mm 6 mps 758 mmHg 68%
    10:00 -8°C° 0 mm 6 mps 759 mmHg 64%
    11:00 -8°C° 0 mm 6 mps 760 mmHg 60%
    12:00 -8°C° 0 mm 6 mps 760 mmHg 57%
    13:00 -6°C° 0 mm 6 mps 761 mmHg 54%
    14:00 -6°C° 0 mm 6 mps 761 mmHg 50%
    15:00 -6°C° 0 mm 5 mps 762 mmHg 51%
    16:00 -6°C° 0 mm 5 mps 762 mmHg 51%
    17:00 -5°C° 0 mm 4 mps 763 mmHg 51%
    18:00 -7°C° 0 mm 4 mps 763 mmHg 53%
    19:00 -7°C° 0 mm 4 mps 764 mmHg 54%
    20:00 -7°C° 0 mm 4 mps 764 mmHg 55%
    21:00 -7°C° 0 mm 4 mps 764 mmHg 55%
    22:00 -7°C° 0 mm 4 mps 764 mmHg 55%
    23:00 -8°C° 0 mm 4 mps 764 mmHg 55%

    23 February, Saturday

    Time Temperature Precipitation Wind Pressure Humidity
    00:00 -8°C° 0 mm 4 mps 764 mmHg 56%
    01:00 -8°C° 0 mm 4 mps 764 mmHg 57%
    02:00 -8°C° 0 mm 4 mps 765 mmHg 58%
    03:00 -8°C° 0 mm 4 mps 764 mmHg 60%
    04:00 -8°C° 0 mm 3 mps 764 mmHg 63%
    05:00 -8°C° 0 mm 3 mps 764 mmHg 65%
    06:00 -8°C° 0 mm 3 mps 765 mmHg 67%
    07:00 -8°C° 0 mm 3 mps 765 mmHg 70%
    08:00 -9°C° 0 mm 3 mps 765 mmHg 72%
    09:00 -8°C° 0 mm 3 mps 765 mmHg 67%
    10:00 -7°C° 0 mm 3 mps 765 mmHg 63%
    11:00 -6°C° 0 mm 3 mps 765 mmHg 59%
    12:00 -6°C° 0 mm 3 mps 764 mmHg 57%
    13:00 -5°C° 0 mm 3 mps 764 mmHg 54%
    14:00 -5°C° 0 mm 3 mps 764 mmHg 52%
    15:00 -4°C° 0 mm 3 mps 764 mmHg 54%
    16:00 -4°C° 0 mm 3 mps 763 mmHg 55%
    17:00 -3°C° 0 mm 2 mps 763 mmHg 57%
    18:00 -3°C° 0 mm 2 mps 763 mmHg 59%
    19:00 -4°C° 0 mm 2 mps 763 mmHg 61%
    20:00 -4°C° 0 mm 2 mps 763 mmHg 63%
    21:00 -4°C° 0 mm 2 mps 762 mmHg 65%
    22:00 -4°C° 0 mm 2 mps 762 mmHg 67%
    23:00 -2°C° 0 mm 1 mps 762 mmHg 69%

    24 February, Sunday

    Time Temperature Precipitation Wind Pressure Humidity
    00:00 -2°C° 0.1 mm 1 mps 762 mmHg 72%
    01:00 -2°C° 0.1 mm 1 mps 761 mmHg 75%
    02:00 -2°C° 0.1 mm 1 mps 761 mmHg 79%
    03:00 -2°C° 0 mm 1 mps 761 mmHg 80%
    04:00 -2°C° 0 mm 1 mps 761 mmHg 81%
    05:00 -2°C° 0 mm 1 mps 761 mmHg 82%
    06:00 -2°C° 0 mm 1 mps 761 mmHg 84%
    07:00 -2°C° 0 mm 1 mps 761 mmHg 85%
    08:00 -3°C° 0 mm 0 mps 761 mmHg 87%
    09:00 -2°C° 0 mm 0 mps 761 mmHg 84%
    10:00 -1°C° 0 mm 1 mps 762 mmHg 82%
    11:00 0°C° 0 mm 1 mps 762 mmHg 80%
    12:00 +1°C° 0 mm 1 mps 762 mmHg 78%
    13:00 +1°C° 0 mm 1 mps 762 mmHg 77%
    14:00 +2°C° 0 mm 1 mps 762 mmHg 75%
    15:00 +2°C° 0 mm 1 mps 762 mmHg 76%
    16:00 +1°C° 0 mm 2 mps 762 mmHg 78%
    17:00 +1°C° 0 mm 2 mps 762 mmHg 80%
    18:00 -1°C° 0 mm 2 mps 763 mmHg 82%
    19:00 -1°C° 0 mm 2 mps 763 mmHg 84%
    20:00 -1°C° 0 mm 2 mps 763 mmHg 87%
    21:00 -1°C° 0 mm 2 mps 763 mmHg 87%
    22:00 -2°C° 0 mm 2 mps 763 mmHg 87%
    23:00 -2°C° 0 mm 2 mps 763 mmHg 88%
    Show more